Flag for Brazil Weather past 2 weeks in Campinas, São Paulo, Brazil

70 °F

Partly cloudy.

Feels Like: 70 °F
Forecast: 68 / 81 °F
Wind: 7 mph from Southeast

Location: Campinas Aeroporto

Current Time: Nov 30, 2015 at 3:04:36 AM

Latest Report: Nov 30, 2015 at 2:00 AM

Visibility: N/A

Pressure: 30.04 "Hg (27.74 "Hg at 686m altitude)

Humidity: 94%

Dew point: 68 °F

Location of CampinasLocation

Historic Weather in Campinas — Graph


Campinas temperature yesterday

Maximum temperature yesterday: 77 °F (at 12:00 PM)
Minimum temperature yesterday: 68 °F (at 12:00 AM)
Average temperature yesterday: 71 °F

Past Weeks' High & Low Weather Summary

High88 °F (Nov 17, 3:00 PM)100% (Nov 15, 4:00 AM)30.09 "Hg (Nov 15, 4:00 AM)
Low34 °F (Nov 23, 4:00 PM)30% (Nov 23, 8:00 PM)29.71 "Hg (Nov 19, 5:00 PM)
Average74 °F78%29.92 "Hg
* Reported Nov 15 1:00 AM — Nov 30 1:00 AM, Campinas, Weather by CustomWeather, © 2015

Note: Actual official high and low records may vary slightly from our data, if they occured in-between our weather recording intervals... More about our weather records


Campinas weather history for previous 24 hours

Time TempWeatherWind HumidityBarometerVisibility
1:00 AM
Mon, Nov 30
70 °FOvercast.7 mph94%30.09 "HgN/A
12:00 AM70 °FMostly cloudy.7 mph94%30.07 "HgN/A
11:00 PM
Sun, Nov 29
70 °FPassing clouds.8 mph100%30.07 "HgN/A
10:00 PM72 °FLight rain. Partly cloudy.10 mph94%30.07 "HgN/A
9:00 PM72 °FLight rain. Partly cloudy.12 mph94%30.01 "HgN/A
8:00 PM72 °FPartly cloudy.10 mph94%30.01 "HgN/A
7:00 PM72 °FBroken clouds.7 mph94%29.98 "HgN/A
6:00 PM72 °FBroken clouds.6 mph88%29.95 "HgN/A
5:00 PM75 °FPartly sunny.3 mph94%29.95 "Hg4 mi
4:00 PM72 °FLight rain. Partly sunny.6 mph100%29.98 "Hg4 mi
3:00 PM70 °FThunderstorms. Fog.5 mph100%30.01 "Hg2 mi
2:00 PM72 °FThunderstorms. Fog.7 mph100%30.01 "Hg2 mi
1:00 PM77 °FThunderstorms. Partly sunny.10 mph74%30.01 "HgN/A
12:00 PM77 °FScattered showers. Broken clouds.5 mph79%30.01 "HgN/A
11:00 AM75 °FPartly sunny.8 mph78%30.04 "HgN/A
10:00 AM75 °FScattered clouds.6 mph83%30.01 "HgN/A
9:00 AM72 °FLight rain. Partly sunny.5 mph94%30.01 "HgN/A
8:00 AM72 °FPartly sunny.5 mph94%29.98 "HgN/A
7:00 AM70 °FBroken clouds.No wind94%29.95 "HgN/A
6:00 AM68 °FPartly cloudy.3 mph100%29.92 "HgN/A
5:00 AM68 °FLight rain. Passing clouds.2 mph100%29.92 "HgN/A
4:00 AM70 °FPassing clouds.1 mph94%29.95 "HgN/A
3:00 AM70 °FPassing clouds.2 mph94%29.95 "HgN/A
Weather by CustomWeather, © 2015

See weather overviewHow to use our weather pages